SCP
0 -0 -0 -0 -0 -0 -0 -0 -0 -0 -0 -0 -0 -0 -0 -0 -0 -0 -0 -0 -0 -0 -0 -0 -0 -0 -0 -0 -0 -0 -0 -0 0 0 0 0 0 -0 0 -0 -0 -0 -0
-0 -0 -0 -0 -0 -0 -0 -0 -0 0 -0 -0 -0 -0 -0 -0 -0 -0 -0 -0 -0 -0 -0 -0 -0 -0 -0 -0 -0 0 0 0 0 0 0 0 -0 -0 -0 -0 -0 -0 -0
-0 -0 -0 -0 -0 -0 -0 -0 -0 -0 -0 -0 -0 -0 -0 -0 -0 -0 -0 -0 -0 -0 -0 -0 -0 -0 -0 0 0 0 0 0 0 -0 -0 -0 -0 -0 -0 -0 -0 -0 -0
-0 -0 -0 -0 -0 -0 -0 -0 -0 -0 -0 -0 -0 -0 -0 -0 -0 -0 -0 -0 -0 -0 -0 -0 -0 -0 0 0 0 0 0 0 -0 -0 -0 0 -0 -0 -0 -0 -0 -0 -0
0 -0 -0 -0 -0 -0 -0 0 0 0 0 0 -0 -0 -0 -0 -0 -0 0 -0 -0 -0 -0 -0 -0 0 0 0 0 0 0 0 0 0 0 0 -0 -0 -0 -0 -0 -0 -0
0 0 0 -0 -0 -0 0 -0 0 0 0 0 0 0 -0 -0 -0 0 0 0 0 -0 -0 -0 0 0 0 0 0 0 0 0 0 0 0 0 -0 -0 -0 -0 -0 -0 -0
0 0 0 -0 -0 -0 -0 0 0 0 0 0 0 0 0 0 0 0 0 -0 -0 -0 -0 0 0 0 0 0 0 0 0 0 0 0 0 -0 -0 -0 -0 -0 -0 -0 -0
0 0 0 0 0 0 0 0 0 0 0 0 0 0 0 0 0 0 0 0 0 0 0 0 0 0 0 0 0 0 0 0 0 0 0 -0 -0 -0 -0 -0 -0 -0 0
0 0 0 0 0 0 0 0 0 0 0 0 0 0 0 0 0 0 -0 0 0 0 0 0 0 0 0 0 0 0 0 0 0 0 0 0 -0 -0 -0 -0 0 0 0
0 0 0 0 0 0 0 0 0 0 0 0 0 0 0 0 0 0 0 0 0 0 0 0 0 0 0 0 0 0 0 0 0 0 0 0 -0 -0 0 0 0 0 0
0 0 0 0 0 0 0 0 0 0 0 0 0 0 0 0 0 0 0 0 0 0 0 0 0 0 0 0 0 0 0 0 0 0 0 0 0 0 0 0 0 0 0
0 0 0 0 0 0 0 0 0 0 0 0 0 0 0 0 0 0 0 0 0 0 0 0 0 0 0 0 0 0 0 0 0 0 0 0 0 0 0 0 0 0 0
0 0 0 0 0 0 0 0 0 0 0 0 0 0 0 0 0 0 0 0 0 0 0 0 0 0 0 0 0 0 0 0 0 0 0 0 0 0 0 0 0 0 0
0 0 0 0 0 0 0 0 0 0 0 0 0 0 0 0 0 0 0 0 0 0 0 0 0 0 0 0 0 0 0 0 0 0 0 0 0 0 0 0 0 0 0
0 0 0 0 0 0 0 0 0 0 0 0 0 0 0 0 0 0 0 0 0 0 0 0 0 0 0 0 0 0 0 0 0 0 0 0 0 0 0 0 0 0 0
0 0 0 0 0 0 0 0 0 0 0 0 0 0 0 0 0 0 0 0 0 0 0 0 0 0 0 0 0 0 0 0 0 0 0 0 0 0 0 0 0 0 0
0 0 0 0 0 0 0 0 0 0 0 0 0 0 0 0 0 0 0 0 0 0 0 0 0 0 0 0 0 0 0 0 0 0 0 0 0 0 0 0 0 0 0
0 0 0 0 0 0 0 0 0 0 0 0 0 0 0 0 0 0 0 0 0 0 0 0 0 0 0 0 0 0 0 0 0 0 0 0 0 0 0 0 0 0 0
0 0 0 0 0 0 0 0 0 0 0 0 0 0 0 0 0 0 0 0 0 0 0 0 0 0 0 0 0 0 0 0 0 0 0 0 0 0 0 0 0 0 0
0 0 0 0 0 0 0 0 0 0 0 0 0 0 0 0 0 0 0 0 0 0 0 0 0 0 0 0 0 0 0 0 0 0 0 0 0 0 0 0 0 0 0
0 0 0 0 0 0 0 0 0 0 0 0 0 0 0 0 0 0 0 0 0 0 0 0 0 0 0 0 0 0 0 0 0 0 0 0 0 0 0 0 0 0 0
0 0 0 0 1 1 1 0 0 0 0 0 0 0 0 0 0 0 0 0 0 0 0 0 0 0 0 0 0 0 0 0 0 0 0 0 0 0 0 0 0 0 0
0 0 0 0 0 1 0 1 0 0 0 0 0 0 0 0 0 0 0 0 0 0 0 0 0 0 0 0 0 0 0 0 0 0 0 0 0 0 0 0 0 0 0
0 0 0 0 0 0 0 1 0 0 0 0 0 0 0 0 0 0 0 0 0 0 0 0 0 0 0 0 0 0 0 0 0 0 0 0 0 0 0 0 0 0 0
0 0 0 0 0 0 0 0 0 0 0 0 0 0 0 0 0 0 0 0 0 0 0 0 0 0 0 0 0 0 0 0 0 0 0 0 0 0 0 0 0 0 0
0 0 0 0 0 0 0 0 0 0 0 0 0 0 0 0 0 0 0 0 0 0 0 0 0 0 0 0 0 0 0 0 0 0 0 0 0 0 0 0 0 0 0
Wind_Speed_500mb
59 57 55 50 45 39 32 32 33 36 38 38 42 38 35 34 37 34 23 30 33 28 28 28 28 27 29 32 30 31 31 30 33 37 40 41 41 39 35 31 30 29 28
66 64 58 50 44 38 33 33 34 37 38 37 42 44 41 37 34 35 22 32 30 28 28 26 26 25 29 30 30 31 30 31 31 32 35 39 36 32 27 23 24 26 26
68 66 58 51 43 37 35 36 35 39 38 40 38 38 45 38 34 34 27 30 27 28 25 26 28 32 34 33 30 29 30 31 32 34 35 35 32 30 35 42 42 40 38
67 65 58 53 42 36 36 36 36 39 40 42 41 40 45 39 32 32 36 31 28 26 27 30 33 35 35 30 27 28 27 29 30 32 32 34 38 36 34 32 32 31 25
67 62 58 51 44 39 36 33 36 40 38 43 40 36 37 39 36 37 35 33 30 31 30 31 33 34 28 23 19 24 25 23 22 25 29 36 29 23 20 15 12 12 8
65 62 55 52 44 40 36 33 38 44 49 45 42 41 42 38 32 38 40 34 35 34 30 28 31 29 26 21 21 21 22 23 26 33 35 32 32 28 16 13 9 9 13
63 64 57 51 45 42 38 34 36 44 46 44 43 41 40 30 33 39 38 37 36 32 29 26 26 26 25 23 20 22 22 26 30 35 33 26 25 19 11 9 15 20 23
59 65 59 51 47 44 43 36 38 46 51 46 46 42 41 39 36 32 37 37 34 30 29 25 23 24 21 20 20 21 22 24 29 28 25 28 19 13 4 10 21 27 26
55 64 63 56 51 47 47 39 40 44 52 50 47 45 46 43 41 36 37 35 31 28 23 22 21 21 22 21 20 20 20 25 31 27 19 15 13 10 7 17 24 27 32
55 63 66 61 57 52 48 44 40 43 53 48 47 45 49 46 41 40 41 40 32 27 26 19 20 22 25 24 22 21 21 27 26 24 17 14 9 9 11 12 27 24 30
57 63 71 68 64 60 52 49 43 43 47 52 50 49 49 44 53 50 48 40 36 31 24 19 19 22 25 26 23 21 25 32 27 22 13 13 12 18 11 17 23 22 19
63 68 75 74 72 67 60 53 48 46 46 54 54 52 49 50 53 52 52 46 39 34 27 21 21 23 24 24 22 21 24 28 26 22 15 15 24 20 2 15 20 19 24
61 66 76 77 73 71 67 60 59 54 51 50 55 56 53 52 55 56 54 52 48 42 36 29 26 26 26 25 24 25 29 30 25 26 27 29 24 23 5 19 13 20 20
64 67 72 77 77 77 72 68 66 66 60 54 56 58 57 52 60 58 59 55 50 44 37 32 29 26 25 24 22 24 30 31 25 33 36 30 20 19 11 15 14 15 19
69 69 72 76 83 82 79 77 73 72 68 61 58 57 57 56 59 59 59 56 50 45 37 35 31 28 26 24 23 25 30 30 27 35 35 33 24 20 18 15 15 16 17
65 69 72 72 83 85 83 84 81 77 73 70 66 64 58 56 59 64 62 58 52 46 40 34 30 28 27 25 27 30 30 29 29 33 32 31 31 27 22 21 21 27 22
53 69 71 77 77 91 92 87 86 83 81 78 75 70 65 61 61 64 65 61 55 50 44 39 33 30 28 30 30 33 31 31 30 33 31 28 27 27 29 29 26 20 19
45 60 69 70 80 83 93 95 82 81 87 83 80 76 70 67 63 67 68 64 61 53 46 41 39 35 34 33 33 34 34 34 31 31 31 28 26 23 26 28 13 9 2
46 48 62 69 71 83 83 96 95 88 89 89 86 84 73 70 65 67 66 69 64 57 54 47 47 39 42 37 35 35 36 33 30 30 30 30 30 27 22 17 14 12 8
46 43 49 61 69 77 85 94 101 90 86 88 89 88 81 77 74 72 68 72 68 63 61 57 50 50 45 44 43 40 36 33 30 29 29 29 28 25 18 12 8 6 7
44 44 40 53 69 73 84 88 101 101 92 95 89 94 89 87 85 82 76 78 76 74 72 64 53 61 57 52 50 43 36 32 31 31 28 26 22 18 15 10 7 7 16
31 39 46 47 58 70 79 91 93 111 87 88 93 96 92 91 93 97 83 77 80 76 77 68 68 68 61 60 53 47 31 26 31 31 30 27 23 19 18 17 25 21 18
30 30 45 52 58 63 79 88 97 89 88 87 84 87 93 95 101 95 84 80 83 80 79 77 79 70 67 68 57 36 21 21 40 32 31 29 29 31 35 25 16 17 17
44 34 34 51 62 64 69 86 100 101 97 100 92 88 99 80 98 92 85 88 82 76 76 81 84 70 73 70 69 64 41 24 28 25 38 39 38 36 24 21 22 22 18
52 47 42 40 60 70 68 81 92 101 95 90 94 94 93 86 90 90 94 86 83 78 77 79 77 75 81 68 68 74 59 43 32 24 31 45 43 32 32 28 29 22 19
66 59 48 45 49 63 71 74 86 92 94 92 92 95 98 92 85 76 75 81 75 75 72 83 75 69 90 70 65 62 57 42 38 28 23 41 40 38 33 31 25 24 24
Wind_Direction_500mb
174 172 181 185 185 189 190 188 185 180 177 171 172 169 164 166 164 164 155 134 151 148 140 129 127 127 128 134 130 121 108 101 99 99 96 95 94 93 95 98 97 92 86
174 177 183 191 190 190 194 193 189 187 178 168 179 178 179 175 173 176 168 138 136 142 136 134 132 129 122 125 121 117 114 113 109 106 104 97 90 87 88 93 93 85 86
179 181 184 194 187 195 192 193 187 185 167 161 163 163 178 181 180 176 164 140 147 143 140 137 131 127 123 120 120 118 115 109 109 108 108 102 94 88 93 90 96 94 93
185 185 187 195 191 196 191 187 183 168 164 164 164 164 170 177 175 165 145 157 148 150 140 134 132 127 122 121 122 123 119 116 114 112 108 101 103 109 108 105 110 112 109
189 189 191 194 196 193 189 181 179 176 166 166 171 163 168 162 163 154 155 163 160 140 138 137 135 130 122 111 117 130 126 123 123 120 113 116 120 120 119 114 118 118 121
191 192 194 197 196 194 185 181 175 167 173 166 164 167 161 163 157 154 166 166 149 147 145 143 140 136 134 133 132 134 126 114 114 120 121 121 116 113 112 108 105 61 56
193 194 196 198 199 193 184 183 182 176 169 173 168 173 159 158 169 177 169 158 151 152 151 148 152 152 145 139 143 132 129 124 117 121 125 122 135 122 73 16 34 63 48
197 195 197 199 202 198 187 183 182 178 168 177 176 171 164 176 182 180 165 154 152 161 154 155 155 162 162 140 137 132 131 132 129 120 123 129 128 111 314 330 56 29 28
201 199 200 198 202 202 190 189 184 186 173 181 178 175 173 182 189 162 149 156 164 168 159 156 157 161 159 154 144 141 130 134 137 124 134 126 132 111 351 3 44 22 7
205 204 204 202 201 201 197 195 190 189 182 177 184 179 184 192 157 157 168 167 172 169 177 167 162 160 158 152 144 139 135 133 129 138 135 145 154 124 89 356 343 4 2
211 210 207 206 204 203 205 200 194 194 189 181 189 189 191 190 164 176 176 167 176 181 189 176 166 161 159 157 152 145 144 145 148 145 147 168 165 138 101 335 350 356 43
213 210 210 210 207 205 207 205 199 197 196 188 190 196 197 183 174 182 170 174 182 189 187 185 164 157 159 161 161 156 162 160 156 153 158 161 149 134 60 342 343 72 78
222 216 210 212 212 208 207 205 203 205 203 199 195 195 200 189 184 187 176 180 187 191 187 186 173 167 167 170 169 165 171 172 159 149 142 158 145 114 49 315 64 77 74
230 224 217 217 212 214 211 207 209 207 207 205 203 197 201 196 189 191 185 188 191 194 194 189 182 177 175 174 173 171 177 181 173 159 149 140 126 117 95 58 91 84 77
244 231 226 220 219 214 215 210 215 214 214 211 208 205 205 202 197 195 194 194 195 196 197 191 188 186 183 179 174 177 182 187 182 179 183 150 147 130 109 99 102 92 80
255 241 231 225 221 220 214 216 214 217 219 216 213 212 205 205 203 201 199 199 200 199 197 196 192 190 187 182 179 180 188 192 182 186 199 199 162 141 132 122 109 93 82
262 254 237 232 226 224 224 218 219 219 218 222 218 215 211 208 206 206 203 202 203 201 198 193 192 194 193 185 185 184 190 193 190 192 205 218 211 201 177 142 123 99 87
268 256 248 233 233 227 229 226 220 219 222 223 222 219 218 213 212 207 205 205 205 204 203 197 200 197 200 191 190 189 185 187 198 201 215 216 223 231 235 230 256 282 102
260 261 253 243 233 230 232 227 228 224 224 223 225 224 220 221 214 213 208 208 208 206 207 206 204 209 203 192 197 194 190 196 209 213 211 215 221 225 239 245 252 257 266
251 253 254 248 241 232 228 231 227 223 221 222 223 227 223 221 220 213 210 210 209 208 209 211 211 203 202 198 193 191 193 196 202 211 215 220 223 226 229 227 228 248 299
248 240 253 244 241 237 228 229 218 212 221 224 226 227 223 226 223 214 208 206 213 210 211 215 210 209 197 201 198 178 175 188 200 206 211 216 216 214 210 195 201 277 285
291 252 236 241 244 238 233 230 226 224 225 229 226 228 226 230 228 218 213 210 210 209 212 209 220 201 207 201 199 183 169 183 200 205 208 204 201 197 194 214 241 252 261
312 284 249 235 231 241 233 231 229 225 225 226 227 227 227 230 231 232 214 209 209 212 215 216 215 211 218 200 204 195 176 195 196 199 204 206 201 215 232 241 235 245 258
315 298 275 247 233 230 234 229 225 220 220 226 231 231 232 225 234 220 217 212 210 212 216 223 214 221 222 209 208 215 216 214 185 183 208 212 230 233 225 212 232 247 261
311 304 290 264 241 230 230 228 224 223 231 227 229 229 224 227 227 233 217 209 212 210 216 226 216 227 228 224 226 218 219 222 221 199 195 213 218 218 214 220 237 254 286
310 301 292 272 249 235 226 230 229 226 221 223 228 230 228 228 224 210 215 212 214 214 218 226 220 230 224 222 230 222 225 229 219 203 199 207 203 211 220 228 247 267 277
Wind_Speed_850mb
59 57 55 50 45 39 32 32 33 36 38 38 42 38 35 34 37 34 23 30 33 28 28 28 28 27 29 32 30 31 31 30 33 37 40 41 41 39 35 31 30 29 28
66 64 58 50 44 38 33 33 34 37 38 37 42 44 41 37 34 35 22 32 30 28 28 26 26 25 29 30 30 31 30 31 31 32 35 39 36 32 27 23 24 26 26
68 66 58 51 43 37 35 36 35 39 38 40 38 38 45 38 34 34 27 30 27 28 25 26 28 32 34 33 30 29 30 31 32 34 35 35 32 30 35 42 42 40 38
67 65 58 53 42 36 36 36 36 39 40 42 41 40 45 39 32 32 36 31 28 26 27 30 33 35 35 30 27 28 27 29 30 32 32 34 38 36 34 32 32 31 25
67 62 58 51 44 39 36 33 36 40 38 43 40 36 37 39 36 37 35 33 30 31 30 31 33 34 28 23 19 24 25 23 22 25 29 36 29 23 20 15 12 12 8
65 62 55 52 44 40 36 33 38 44 49 45 42 41 42 38 32 38 40 34 35 34 30 28 31 29 26 21 21 21 22 23 26 33 35 32 32 28 16 13 9 9 13
63 64 57 51 45 42 38 34 36 44 46 44 43 41 40 30 33 39 38 37 36 32 29 26 26 26 25 23 20 22 22 26 30 35 33 26 25 19 11 9 15 20 23
59 65 59 51 47 44 43 36 38 46 51 46 46 42 41 39 36 32 37 37 34 30 29 25 23 24 21 20 20 21 22 24 29 28 25 28 19 13 4 10 21 27 26
55 64 63 56 51 47 47 39 40 44 52 50 47 45 46 43 41 36 37 35 31 28 23 22 21 21 22 21 20 20 20 25 31 27 19 15 13 10 7 17 24 27 32
55 63 66 61 57 52 48 44 40 43 53 48 47 45 49 46 41 40 41 40 32 27 26 19 20 22 25 24 22 21 21 27 26 24 17 14 9 9 11 12 27 24 30
57 63 71 68 64 60 52 49 43 43 47 52 50 49 49 44 53 50 48 40 36 31 24 19 19 22 25 26 23 21 25 32 27 22 13 13 12 18 11 17 23 22 19
63 68 75 74 72 67 60 53 48 46 46 54 54 52 49 50 53 52 52 46 39 34 27 21 21 23 24 24 22 21 24 28 26 22 15 15 24 20 2 15 20 19 24
61 66 76 77 73 71 67 60 59 54 51 50 55 56 53 52 55 56 54 52 48 42 36 29 26 26 26 25 24 25 29 30 25 26 27 29 24 23 5 19 13 20 20
64 67 72 77 77 77 72 68 66 66 60 54 56 58 57 52 60 58 59 55 50 44 37 32 29 26 25 24 22 24 30 31 25 33 36 30 20 19 11 15 14 15 19
69 69 72 76 83 82 79 77 73 72 68 61 58 57 57 56 59 59 59 56 50 45 37 35 31 28 26 24 23 25 30 30 27 35 35 33 24 20 18 15 15 16 17
65 69 72 72 83 85 83 84 81 77 73 70 66 64 58 56 59 64 62 58 52 46 40 34 30 28 27 25 27 30 30 29 29 33 32 31 31 27 22 21 21 27 22
53 69 71 77 77 91 92 87 86 83 81 78 75 70 65 61 61 64 65 61 55 50 44 39 33 30 28 30 30 33 31 31 30 33 31 28 27 27 29 29 26 20 19
45 60 69 70 80 83 93 95 82 81 87 83 80 76 70 67 63 67 68 64 61 53 46 41 39 35 34 33 33 34 34 34 31 31 31 28 26 23 26 28 13 9 2
46 48 62 69 71 83 83 96 95 88 89 89 86 84 73 70 65 67 66 69 64 57 54 47 47 39 42 37 35 35 36 33 30 30 30 30 30 27 22 17 14 12 8
46 43 49 61 69 77 85 94 101 90 86 88 89 88 81 77 74 72 68 72 68 63 61 57 50 50 45 44 43 40 36 33 30 29 29 29 28 25 18 12 8 6 7
44 44 40 53 69 73 84 88 101 101 92 95 89 94 89 87 85 82 76 78 76 74 72 64 53 61 57 52 50 43 36 32 31 31 28 26 22 18 15 10 7 7 16
31 39 46 47 58 70 79 91 93 111 87 88 93 96 92 91 93 97 83 77 80 76 77 68 68 68 61 60 53 47 31 26 31 31 30 27 23 19 18 17 25 21 18
30 30 45 52 58 63 79 88 97 89 88 87 84 87 93 95 101 95 84 80 83 80 79 77 79 70 67 68 57 36 21 21 40 32 31 29 29 31 35 25 16 17 17
44 34 34 51 62 64 69 86 100 101 97 100 92 88 99 80 98 92 85 88 82 76 76 81 84 70 73 70 69 64 41 24 28 25 38 39 38 36 24 21 22 22 18
52 47 42 40 60 70 68 81 92 101 95 90 94 94 93 86 90 90 94 86 83 78 77 79 77 75 81 68 68 74 59 43 32 24 31 45 43 32 32 28 29 22 19
66 59 48 45 49 63 71 74 86 92 94 92 92 95 98 92 85 76 75 81 75 75 72 83 75 69 90 70 65 62 57 42 38 28 23 41 40 38 33 31 25 24 24
Wind_Direction_850mb
174 172 181 185 185 189 190 188 185 180 177 171 172 169 164 166 164 164 155 134 151 148 140 129 127 127 128 134 130 121 108 101 99 99 96 95 94 93 95 98 97 92 86
174 177 183 191 190 190 194 193 189 187 178 168 179 178 179 175 173 176 168 138 136 142 136 134 132 129 122 125 121 117 114 113 109 106 104 97 90 87 88 93 93 85 86
179 181 184 194 187 195 192 193 187 185 167 161 163 163 178 181 180 176 164 140 147 143 140 137 131 127 123 120 120 118 115 109 109 108 108 102 94 88 93 90 96 94 93
185 185 187 195 191 196 191 187 183 168 164 164 164 164 170 177 175 165 145 157 148 150 140 134 132 127 122 121 122 123 119 116 114 112 108 101 103 109 108 105 110 112 109
189 189 191 194 196 193 189 181 179 176 166 166 171 163 168 162 163 154 155 163 160 140 138 137 135 130 122 111 117 130 126 123 123 120 113 116 120 120 119 114 118 118 121
191 192 194 197 196 194 185 181 175 167 173 166 164 167 161 163 157 154 166 166 149 147 145 143 140 136 134 133 132 134 126 114 114 120 121 121 116 113 112 108 105 61 56
193 194 196 198 199 193 184 183 182 176 169 173 168 173 159 158 169 177 169 158 151 152 151 148 152 152 145 139 143 132 129 124 117 121 125 122 135 122 73 16 34 63 48
197 195 197 199 202 198 187 183 182 178 168 177 176 171 164 176 182 180 165 154 152 161 154 155 155 162 162 140 137 132 131 132 129 120 123 129 128 111 314 330 56 29 28
201 199 200 198 202 202 190 189 184 186 173 181 178 175 173 182 189 162 149 156 164 168 159 156 157 161 159 154 144 141 130 134 137 124 134 126 132 111 351 3 44 22 7
205 204 204 202 201 201 197 195 190 189 182 177 184 179 184 192 157 157 168 167 172 169 177 167 162 160 158 152 144 139 135 133 129 138 135 145 154 124 89 356 343 4 2
211 210 207 206 204 203 205 200 194 194 189 181 189 189 191 190 164 176 176 167 176 181 189 176 166 161 159 157 152 145 144 145 148 145 147 168 165 138 101 335 350 356 43
213 210 210 210 207 205 207 205 199 197 196 188 190 196 197 183 174 182 170 174 182 189 187 185 164 157 159 161 161 156 162 160 156 153 158 161 149 134 60 342 343 72 78
222 216 210 212 212 208 207 205 203 205 203 199 195 195 200 189 184 187 176 180 187 191 187 186 173 167 167 170 169 165 171 172 159 149 142 158 145 114 49 315 64 77 74
230 224 217 217 212 214 211 207 209 207 207 205 203 197 201 196 189 191 185 188 191 194 194 189 182 177 175 174 173 171 177 181 173 159 149 140 126 117 95 58 91 84 77
244 231 226 220 219 214 215 210 215 214 214 211 208 205 205 202 197 195 194 194 195 196 197 191 188 186 183 179 174 177 182 187 182 179 183 150 147 130 109 99 102 92 80
255 241 231 225 221 220 214 216 214 217 219 216 213 212 205 205 203 201 199 199 200 199 197 196 192 190 187 182 179 180 188 192 182 186 199 199 162 141 132 122 109 93 82
262 254 237 232 226 224 224 218 219 219 218 222 218 215 211 208 206 206 203 202 203 201 198 193 192 194 193 185 185 184 190 193 190 192 205 218 211 201 177 142 123 99 87
268 256 248 233 233 227 229 226 220 219 222 223 222 219 218 213 212 207 205 205 205 204 203 197 200 197 200 191 190 189 185 187 198 201 215 216 223 231 235 230 256 282 102
260 261 253 243 233 230 232 227 228 224 224 223 225 224 220 221 214 213 208 208 208 206 207 206 204 209 203 192 197 194 190 196 209 213 211 215 221 225 239 245 252 257 266
251 253 254 248 241 232 228 231 227 223 221 222 223 227 223 221 220 213 210 210 209 208 209 211 211 203 202 198 193 191 193 196 202 211 215 220 223 226 229 227 228 248 299
248 240 253 244 241 237 228 229 218 212 221 224 226 227 223 226 223 214 208 206 213 210 211 215 210 209 197 201 198 178 175 188 200 206 211 216 216 214 210 195 201 277 285
291 252 236 241 244 238 233 230 226 224 225 229 226 228 226 230 228 218 213 210 210 209 212 209 220 201 207 201 199 183 169 183 200 205 208 204 201 197 194 214 241 252 261
312 284 249 235 231 241 233 231 229 225 225 226 227 227 227 230 231 232 214 209 209 212 215 216 215 211 218 200 204 195 176 195 196 199 204 206 201 215 232 241 235 245 258
315 298 275 247 233 230 234 229 225 220 220 226 231 231 232 225 234 220 217 212 210 212 216 223 214 221 222 209 208 215 216 214 185 183 208 212 230 233 225 212 232 247 261
311 304 290 264 241 230 230 228 224 223 231 227 229 229 224 227 227 233 217 209 212 210 216 226 216 227 228 224 226 218 219 222 221 199 195 213 218 218 214 220 237 254 286
310 301 292 272 249 235 226 230 229 226 221 223 228 230 228 228 224 210 215 212 214 214 218 226 220 230 224 222 230 222 225 229 219 203 199 207 203 211 220 228 247 267 277